Friday Harbor, WA
on Sunday, November 25, 2012

Sunday
Previous Day Next Day
Daily Summary
 ActualAverageRecord
Temperature
Mean Temperature °F °F  
Max Temperature 45°F 46°F 51°F (2004)
Min Temperature 35°F 37°F 30°F (2002)
Degree Days
Heating Degree Days 25    
Moisture
Dew Point 37°F   
Average Humidity 91    
Maximum Humidity 100    
Minimum Humidity 76    
Precipitation
Precipitation 0.00 in in in ()
Wind
Wind Speed 1 mph   
Max Wind Speed 9 mph   
Max Gust Speed mph   
Visibility 9 miles   
Events     
Averages and records for this station are not official NWS values.
Key: T is trace of precipitation, MM is missing value
Source: NWS Daily Summary
Seasonal Weather Averages
Time(PST)TemperatureDew PointHumidity Pressure Visibility Wind DirectionWind SpeedGust SpeedPrecipitationEvents Conditions
12:41 AM 35.6°F 35.6°F 100% 30.28 in 6.0 miles Calm Calm - N/A   Mostly Cloudy
12:49 AM 35.6°F 35.6°F 100% 30.28 in 5.0 miles Calm Calm - N/A   Overcast
12:53 AM 36.0°F 35.1°F 97% 30.29 in 5.0 miles Calm Calm - N/A   Overcast
1:17 AM 39.2°F 37.4°F 93% 30.29 in 9.0 miles Calm Calm - N/A   Overcast
1:25 AM 39.2°F 39.2°F 100% 30.29 in 9.0 miles Calm Calm - N/A   Overcast
1:53 AM 39.0°F 37.9°F 96% 30.29 in 7.0 miles Calm Calm - N/A   Overcast
2:53 AM 39.9°F 39.0°F 97% 30.31 in 8.0 miles Calm Calm - N/A   Overcast
3:48 AM 39.2°F 39.2°F 100% 30.31 in 10.0 miles Calm Calm - N/A   Overcast
4:53 AM 39.9°F 39.0°F 97% 30.32 in 10.0 miles Variable 3.5 mph - N/A   Overcast
5:53 AM 39.9°F 39.0°F 97% 30.32 in 8.0 miles Calm Calm - N/A   Overcast
6:53 AM 39.0°F 37.9°F 96% 30.32 in 10.0 miles Calm Calm - N/A   Overcast
7:53 AM 37.9°F 37.0°F 97% 30.34 in 7.0 miles Calm Calm - N/A   Overcast
8:53 AM 42.1°F 39.0°F 89% 30.35 in 10.0 miles Calm Calm - N/A   Overcast
9:53 AM 43.0°F 39.0°F 86% 30.37 in 10.0 miles NNW 4.6 mph - N/A   Overcast
10:53 AM 45.0°F 39.0°F 80% 30.37 in 10.0 miles NNW 6.9 mph - N/A   Overcast
11:53 AM 45.0°F 37.9°F 76% 30.37 in 10.0 miles North 9.2 mph - N/A   Clear
7:53 PM 39.0°F 36.0°F 89% 30.31 in 10.0 miles Calm Calm - N/A   Partly Cloudy
8:53 PM 39.9°F 36.0°F 86% 30.30 in 10.0 miles NNW 3.5 mph - N/A   Clear
9:53 PM 41.0°F 36.0°F 82% 30.28 in 10.0 miles NNW 6.9 mph - N/A   Clear
10:53 PM 41.0°F 35.1°F 79% 30.27 in 10.0 miles North 8.1 mph - N/A   Clear
11:53 PM 39.9°F 34.0°F 79% 30.27 in 10.0 miles North 6.9 mph - N/A   Clear
Moon Phase
Nov. 25 Nov. 28 Dec. 06 Dec. 13 Dec. 20
Sunrise:07:35 AM (PST) Moon Rise:02:50 PM (PST)11/25
Sunset:04:22 PM (PST) Moon Set:04:45 AM (PST)11/25

Copyright © 2014 The Weather Underground, Inc.